Location: *
(38.9800°N, 16.0500°E)
Time: 08:01:28
(UTC+00:00)

Meteor 1-13 Rocket - Pass Details

Date: 07 April 2020
Orbit: 830 x 912 km, 81.3° (Epoch: 25 May)

Event Time Altitude Azimuth Distance (km) Brightness Sun altitude
Exits shadow 03:21:30 10° 208° (SSW) 2,558 6.3 -13.8°
Reaches altitude 10° 03:21:34 10° 208° (SSW) 2,534 6.2 -13.8°
Maximum altitude 03:27:08 50° 283° (WNW) 1,102 4.5 -12.8°
Drops below altitude 10° 03:32:38 10° 358° (N) 2,495 6.9 -11.8°
Sets 03:35:07 0° 4° (N) 3,424 7.7 -11.3°
